Location: Namasale
(1.5000°N, 32.6167°E)
Time: 00:51:27
(UTC+00:00)

Explorer 7 - Visible Passes

Search period start: 21 April 2021 00:00
Search period end: 01 May 2021 00:00
Orbit: 484 x 677 km, 50.3° (Epoch: 20 April)

Date Brightness Start Highest point End Pass type
(mag) Time Alt. Az. Time Alt. Az. Time Alt. Az.
21 Apr 8.1 01:53:56 33° N 01:55:40 48° NE 02:00:22 10° SE visible
22 Apr 7.3 02:00:45 66° SSE 02:00:45 66° SSE 02:04:57 10° SE visible
23 Apr 8.9 02:07:12 22° S 02:07:12 22° S 02:09:05 10° SSE visible
